Data supplied by UK-AIR on 31/3/2012
All Data GMT hour ending 
Status: R =Ratified P=Provisional,P*=As supplied
,,Exeter Roadside,,,,,,,,,,,,,,,,,,,,,,,
Date,time,"Nitric oxide",status,unit,"Nitrogen dioxide",status,unit,"Nitrogen oxides as nitrogen dioxide",status,unit,"Ozone",status,unit
 
01-01-2011,01:00,28,R,ugm-3,34,R,ugm-3,76,R,ugm-3,34,R,ugm-3
01-01-2011,02:00,29,R,ugm-3,38,R,ugm-3,82,R,ugm-3,34,R,ugm-3
01-01-2011,03:00,29,R,ugm-3,36,R,ugm-3,80,R,ugm-3,32,R,ugm-3
01-01-2011,04:00,20,R,ugm-3,29,R,ugm-3,59,R,ugm-3,38,R,ugm-3
01-01-2011,05:00,4,R,ugm-3,11,R,ugm-3,17,R,ugm-3,44,R,ugm-3
01-01-2011,06:00,3,R,ugm-3,13,R,ugm-3,17,R,ugm-3,40,R,ugm-3
01-01-2011,07:00,5,R,ugm-3,21,R,ugm-3,29,R,ugm-3,32,R,ugm-3
01-01-2011,08:00,11,R,ugm-3,36,R,ugm-3,53,R,ugm-3,20,R,ugm-3
01-01-2011,09:00,20,R,ugm-3,40,R,ugm-3,71,R,ugm-3,16,R,ugm-3
01-01-2011,10:00,21,R,ugm-3,36,R,ugm-3,69,R,ugm-3,22,R,ugm-3
01-01-2011,11:00,26,R,ugm-3,40,R,ugm-3,80,R,ugm-3,22,R,ugm-3
01-01-2011,12:00,23,R,ugm-3,31,R,ugm-3,65,R,ugm-3,26,R,ugm-3
01-01-2011,13:00,30,R,ugm-3,38,R,ugm-3,84,R,ugm-3,22,R,ugm-3
01-01-2011,14:00,34,R,ugm-3,40,R,ugm-3,92,R,ugm-3,22,R,ugm-3
01-01-2011,15:00,29,R,ugm-3,34,R,ugm-3,78,R,ugm-3,26,R,ugm-3
01-01-2011,16:00,25,R,ugm-3,32,R,ugm-3,71,R,ugm-3,28,R,ugm-3
01-01-2011,17:00,19,R,ugm-3,25,R,ugm-3,53,R,ugm-3,30,R,ugm-3
01-01-2011,18:00,16,R,ugm-3,23,R,ugm-3,48,R,ugm-3,30,R,ugm-3
01-01-2011,19:00,20,R,ugm-3,23,R,ugm-3,53,R,ugm-3,26,R,ugm-3
01-01-2011,20:00,16,R,ugm-3,27,R,ugm-3,52,R,ugm-3,22,R,ugm-3
01-01-2011,21:00,24,R,ugm-3,32,R,ugm-3,69,R,ugm-3,14,R,ugm-3
01-01-2011,22:00,8,R,ugm-3,21,R,ugm-3,32,R,ugm-3,24,R,ugm-3
01-01-2011,23:00,10,R,ugm-3,19,R,ugm-3,34,R,ugm-3,20,R,ugm-3
01-01-2011,24:00,18,R,ugm-3,27,R,ugm-3,53,R,ugm-3,14,R,ugm-3
02-01-2011,01:00,6,R,ugm-3,11,R,ugm-3,21,R,ugm-3,28,R,ugm-3
02-01-2011,02:00,1,R,ugm-3,8,R,ugm-3,10,R,ugm-3,24,R,ugm-3
02-01-2011,03:00,4,R,ugm-3,11,R,ugm-3,17,R,ugm-3,22,R,ugm-3
02-01-2011,04:00,1,R,ugm-3,8,R,ugm-3,10,R,ugm-3,30,R,ugm-3
02-01-2011,05:00,3,R,ugm-3,8,R,ugm-3,11,R,ugm-3,40,R,ugm-3
02-01-2011,06:00,10,R,ugm-3,11,R,ugm-3,27,R,ugm-3,42,R,ugm-3
02-01-2011,07:00,9,R,ugm-3,15,R,ugm-3,29,R,ugm-3,46,R,ugm-3
02-01-2011,08:00,24,R,ugm-3,25,R,ugm-3,61,R,ugm-3,38,R,ugm-3
02-01-2011,09:00,25,R,ugm-3,31,R,ugm-3,69,R,ugm-3,36,R,ugm-3
02-01-2011,10:00,49,R,ugm-3,40,R,ugm-3,115,R,ugm-3,30,R,ugm-3
02-01-2011,11:00,73,R,ugm-3,55,R,ugm-3,166,R,ugm-3,26,R,ugm-3
02-01-2011,12:00,74,R,ugm-3,67,R,ugm-3,180,R,ugm-3,24,R,ugm-3
02-01-2011,13:00,56,R,ugm-3,57,R,ugm-3,143,R,ugm-3,24,R,ugm-3
02-01-2011,14:00,98,R,ugm-3,69,R,ugm-3,218,R,ugm-3,14,R,ugm-3
02-01-2011,15:00,98,R,ugm-3,71,R,ugm-3,220,R,ugm-3,14,R,ugm-3
02-01-2011,16:00,86,R,ugm-3,65,R,ugm-3,197,R,ugm-3,14,R,ugm-3
02-01-2011,17:00,24,R,ugm-3,38,R,ugm-3,74,R,ugm-3,30,R,ugm-3
02-01-2011,18:00,34,R,ugm-3,40,R,ugm-3,92,R,ugm-3,26,R,ugm-3
02-01-2011,19:00,28,R,ugm-3,38,R,ugm-3,80,R,ugm-3,32,R,ugm-3
02-01-2011,20:00,35,R,ugm-3,36,R,ugm-3,90,R,ugm-3,28,R,ugm-3
02-01-2011,21:00,28,R,ugm-3,29,R,ugm-3,71,R,ugm-3,30,R,ugm-3
02-01-2011,22:00,20,R,ugm-3,27,R,ugm-3,57,R,ugm-3,30,R,ugm-3
02-01-2011,23:00,18,R,ugm-3,23,R,ugm-3,50,R,ugm-3,30,R,ugm-3
02-01-2011,24:00,11,R,ugm-3,17,R,ugm-3,34,R,ugm-3,36,R,ugm-3
03-01-2011,01:00,10,R,ugm-3,19,R,ugm-3,34,R,ugm-3,36,R,ugm-3
03-01-2011,02:00,6,R,ugm-3,15,R,ugm-3,25,R,ugm-3,34,R,ugm-3
03-01-2011,03:00,1,R,ugm-3,11,R,ugm-3,13,R,ugm-3,40,R,ugm-3
03-01-2011,04:00,14,R,ugm-3,13,R,ugm-3,34,R,ugm-3,40,R,ugm-3
03-01-2011,05:00,3,R,ugm-3,13,R,ugm-3,17,R,ugm-3,40,R,ugm-3
03-01-2011,06:00,25,R,ugm-3,27,R,ugm-3,65,R,ugm-3,32,R,ugm-3
03-01-2011,07:00,19,R,ugm-3,31,R,ugm-3,59,R,ugm-3,30,R,ugm-3
03-01-2011,08:00,29,R,ugm-3,36,R,ugm-3,80,R,ugm-3,26,R,ugm-3
03-01-2011,09:00,38,R,ugm-3,42,R,ugm-3,99,R,ugm-3,26,R,ugm-3
03-01-2011,10:00,54,R,ugm-3,50,R,ugm-3,132,R,ugm-3,24,R,ugm-3
03-01-2011,11:00,76,R,ugm-3,65,R,ugm-3,181,R,ugm-3,18,R,ugm-3
03-01-2011,12:00,89,R,ugm-3,69,R,ugm-3,204,R,ugm-3,12,R,ugm-3
03-01-2011,13:00,106,R,ugm-3,67,R,ugm-3,229,R,ugm-3,12,R,ugm-3
03-01-2011,14:00,100,R,ugm-3,57,R,ugm-3,210,R,ugm-3,14,R,ugm-3
03-01-2011,15:00,124,R,ugm-3,69,R,ugm-3,258,R,ugm-3,12,R,ugm-3
03-01-2011,16:00,101,R,ugm-3,63,R,ugm-3,218,R,ugm-3,10,R,ugm-3
03-01-2011,17:00,83,R,ugm-3,52,R,ugm-3,178,R,ugm-3,12,R,ugm-3
03-01-2011,18:00,50,R,ugm-3,44,R,ugm-3,120,R,ugm-3,16,R,ugm-3
03-01-2011,19:00,30,R,ugm-3,36,R,ugm-3,82,R,ugm-3,18,R,ugm-3
03-01-2011,20:00,35,R,ugm-3,38,R,ugm-3,92,R,ugm-3,16,R,ugm-3
03-01-2011,21:00,25,R,ugm-3,23,R,ugm-3,61,R,ugm-3,22,R,ugm-3
03-01-2011,22:00,20,R,ugm-3,25,R,ugm-3,55,R,ugm-3,30,R,ugm-3
03-01-2011,23:00,11,R,ugm-3,19,R,ugm-3,36,R,ugm-3,38,R,ugm-3
03-01-2011,24:00,5,R,ugm-3,32,R,ugm-3,40,R,ugm-3,22,R,ugm-3
04-01-2011,01:00,9,R,ugm-3,25,R,ugm-3,38,R,ugm-3,24,R,ugm-3
04-01-2011,02:00,11,R,ugm-3,23,R,ugm-3,40,R,ugm-3,30,R,ugm-3
04-01-2011,03:00,1,R,ugm-3,21,R,ugm-3,23,R,ugm-3,28,R,ugm-3
04-01-2011,04:00,16,R,ugm-3,31,R,ugm-3,55,R,ugm-3,22,R,ugm-3
04-01-2011,05:00,49,R,ugm-3,50,R,ugm-3,124,R,ugm-3,8,R,ugm-3
04-01-2011,06:00,141,R,ugm-3,67,R,ugm-3,283,R,ugm-3,4,R,ugm-3
04-01-2011,07:00,179,R,ugm-3,94,R,ugm-3,367,R,ugm-3,2,R,ugm-3
04-01-2011,08:00,199,R,ugm-3,107,R,ugm-3,411,R,ugm-3,2,R,ugm-3
04-01-2011,09:00,225,R,ugm-3,101,R,ugm-3,445,R,ugm-3,2,R,ugm-3
04-01-2011,10:00,155,R,ugm-3,90,R,ugm-3,327,R,ugm-3,4,R,ugm-3
04-01-2011,11:00,74,R,ugm-3,74,R,ugm-3,187,R,ugm-3,10,R,ugm-3
04-01-2011,12:00,38,R,ugm-3,50,R,ugm-3,107,R,ugm-3,28,R,ugm-3
04-01-2011,13:00,19,R,ugm-3,34,R,ugm-3,63,R,ugm-3,36,R,ugm-3
04-01-2011,14:00,28,R,ugm-3,46,R,ugm-3,88,R,ugm-3,26,R,ugm-3
04-01-2011,15:00,38,R,ugm-3,55,R,ugm-3,113,R,ugm-3,18,R,ugm-3
04-01-2011,16:00,46,R,ugm-3,59,R,ugm-3,130,R,ugm-3,16,R,ugm-3
04-01-2011,17:00,29,R,ugm-3,50,R,ugm-3,94,R,ugm-3,22,R,ugm-3
04-01-2011,18:00,6,R,ugm-3,32,R,ugm-3,42,R,ugm-3,38,R,ugm-3
04-01-2011,19:00,6,R,ugm-3,27,R,ugm-3,36,R,ugm-3,42,R,ugm-3
04-01-2011,20:00,6,R,ugm-3,25,R,ugm-3,34,R,ugm-3,44,R,ugm-3
04-01-2011,21:00,8,R,ugm-3,25,R,ugm-3,36,R,ugm-3,42,R,ugm-3
04-01-2011,22:00,3,R,ugm-3,17,R,ugm-3,21,R,ugm-3,52,R,ugm-3
04-01-2011,23:00,6,R,ugm-3,15,R,ugm-3,25,R,ugm-3,54,R,ugm-3
04-01-2011,24:00,1,R,ugm-3,10,R,ugm-3,11,R,ugm-3,56,R,ugm-3
05-01-2011,01:00,1,R,ugm-3,10,R,ugm-3,11,R,ugm-3,56,R,ugm-3
05-01-2011,02:00,1,R,ugm-3,10,R,ugm-3,11,R,ugm-3,58,R,ugm-3
05-01-2011,03:00,1,R,ugm-3,8,R,ugm-3,10,R,ugm-3,56,R,ugm-3
05-01-2011,04:00,1,R,ugm-3,10,R,ugm-3,11,R,ugm-3,58,R,ugm-3
05-01-2011,05:00,9,R,ugm-3,17,R,ugm-3,31,R,ugm-3,50,R,ugm-3
05-01-2011,06:00,11,R,ugm-3,25,R,ugm-3,42,R,ugm-3,42,R,ugm-3
05-01-2011,07:00,21,R,ugm-3,34,R,ugm-3,67,R,ugm-3,32,R,ugm-3
05-01-2011,08:00,23,R,ugm-3,40,R,ugm-3,74,R,ugm-3,22,R,ugm-3
05-01-2011,09:00,26,R,ugm-3,44,R,ugm-3,84,R,ugm-3,20,R,ugm-3
05-01-2011,10:00,36,R,ugm-3,46,R,ugm-3,101,R,ugm-3,18,R,ugm-3
05-01-2011,11:00,29,R,ugm-3,42,R,ugm-3,86,R,ugm-3,20,R,ugm-3
05-01-2011,12:00,56,R,ugm-3,52,R,ugm-3,138,R,ugm-3,14,R,ugm-3
05-01-2011,13:00,89,R,ugm-3,59,R,ugm-3,195,R,ugm-3,10,R,ugm-3
05-01-2011,14:00,209,R,ugm-3,80,R,ugm-3,399,R,ugm-3,2,R,ugm-3
05-01-2011,15:00,238,R,ugm-3,78,R,ugm-3,441,R,ugm-3,2,R,ugm-3
05-01-2011,16:00,316,R,ugm-3,99,R,ugm-3,583,R,ugm-3,2,R,ugm-3
05-01-2011,17:00,234,R,ugm-3,99,R,ugm-3,456,R,ugm-3,2,R,ugm-3
05-01-2011,18:00,245,R,ugm-3,99,R,ugm-3,474,R,ugm-3,2,R,ugm-3
05-01-2011,19:00,283,R,ugm-3,101,R,ugm-3,533,R,ugm-3,2,R,ugm-3
05-01-2011,20:00,213,R,ugm-3,80,R,ugm-3,405,R,ugm-3,2,R,ugm-3
05-01-2011,21:00,241,R,ugm-3,76,R,ugm-3,445,R,ugm-3,2,R,ugm-3
05-01-2011,22:00,239,R,ugm-3,74,R,ugm-3,439,R,ugm-3,2,R,ugm-3
05-01-2011,23:00,206,R,ugm-3,73,R,ugm-3,388,R,ugm-3,2,R,ugm-3
05-01-2011,24:00,100,R,ugm-3,52,R,ugm-3,204,R,ugm-3,2,R,ugm-3
06-01-2011,01:00,95,R,ugm-3,53,R,ugm-3,199,R,ugm-3,2,R,ugm-3
06-01-2011,02:00,81,R,ugm-3,50,R,ugm-3,174,R,ugm-3,2,R,ugm-3
06-01-2011,03:00,85,R,ugm-3,40,R,ugm-3,170,R,ugm-3,2,R,ugm-3
06-01-2011,04:00,54,R,ugm-3,42,R,ugm-3,124,R,ugm-3,2,R,ugm-3
06-01-2011,05:00,51,R,ugm-3,48,R,ugm-3,126,R,ugm-3,6,R,ugm-3
06-01-2011,06:00,99,R,ugm-3,57,R,ugm-3,208,R,ugm-3,12,R,ugm-3
06-01-2011,07:00,116,R,ugm-3,90,R,ugm-3,267,R,ugm-3,8,R,ugm-3
06-01-2011,08:00,148,R,ugm-3,117,R,ugm-3,342,R,ugm-3,6,R,ugm-3
06-01-2011,09:00,166,R,ugm-3,117,R,ugm-3,371,R,ugm-3,6,R,ugm-3
06-01-2011,10:00,213,R,ugm-3,99,R,ugm-3,424,R,ugm-3,6,R,ugm-3
06-01-2011,11:00,165,R,ugm-3,78,R,ugm-3,330,R,ugm-3,12,R,ugm-3
06-01-2011,12:00,,,,,,,,,,10,R,ugm-3
06-01-2011,13:00,,,,,,,,,,12,R,ugm-3
06-01-2011,14:00,170,R,ugm-3,94,R,ugm-3,353,R,ugm-3,10,R,ugm-3
06-01-2011,15:00,190,R,ugm-3,96,R,ugm-3,386,R,ugm-3,6,R,ugm-3
06-01-2011,16:00,229,R,ugm-3,97,R,ugm-3,447,R,ugm-3,4,R,ugm-3
06-01-2011,17:00,188,R,ugm-3,107,R,ugm-3,393,R,ugm-3,4,R,ugm-3
06-01-2011,18:00,91,R,ugm-3,74,R,ugm-3,214,R,ugm-3,4,R,ugm-3
06-01-2011,19:00,68,R,ugm-3,63,R,ugm-3,166,R,ugm-3,4,R,ugm-3
06-01-2011,20:00,63,R,ugm-3,61,R,ugm-3,157,R,ugm-3,4,R,ugm-3
06-01-2011,21:00,35,R,ugm-3,57,R,ugm-3,111,R,ugm-3,4,R,ugm-3
06-01-2011,22:00,49,R,ugm-3,50,R,ugm-3,124,R,ugm-3,6,R,ugm-3
06-01-2011,23:00,28,R,ugm-3,40,R,ugm-3,82,R,ugm-3,10,R,ugm-3
06-01-2011,24:00,13,R,ugm-3,32,R,ugm-3,52,R,ugm-3,14,R,ugm-3
07-01-2011,01:00,8,R,ugm-3,32,R,ugm-3,44,R,ugm-3,18,R,ugm-3
07-01-2011,02:00,4,R,ugm-3,25,R,ugm-3,31,R,ugm-3,34,R,ugm-3
07-01-2011,03:00,3,R,ugm-3,15,R,ugm-3,19,R,ugm-3,36,R,ugm-3
07-01-2011,04:00,4,R,ugm-3,19,R,ugm-3,25,R,ugm-3,28,R,ugm-3
07-01-2011,05:00,44,R,ugm-3,36,R,ugm-3,103,R,ugm-3,12,R,ugm-3
07-01-2011,06:00,104,R,ugm-3,57,R,ugm-3,216,R,ugm-3,4,R,ugm-3
07-01-2011,07:00,189,R,ugm-3,84,R,ugm-3,372,R,ugm-3,2,R,ugm-3
07-01-2011,08:00,250,R,ugm-3,92,R,ugm-3,474,R,ugm-3,2,R,ugm-3
07-01-2011,09:00,268,R,ugm-3,103,R,ugm-3,512,R,ugm-3,2,R,ugm-3
07-01-2011,10:00,301,R,ugm-3,132,R,ugm-3,592,R,ugm-3,2,R,ugm-3
07-01-2011,11:00,131,R,ugm-3,76,R,ugm-3,277,R,ugm-3,14,R,ugm-3
07-01-2011,12:00,59,R,ugm-3,55,R,ugm-3,145,R,ugm-3,28,R,ugm-3
07-01-2011,13:00,21,R,ugm-3,38,R,ugm-3,71,R,ugm-3,46,R,ugm-3
07-01-2011,14:00,19,R,ugm-3,38,R,ugm-3,67,R,ugm-3,44,R,ugm-3
07-01-2011,15:00,24,R,ugm-3,52,R,ugm-3,88,R,ugm-3,34,R,ugm-3
07-01-2011,16:00,23,R,ugm-3,50,R,ugm-3,84,R,ugm-3,34,R,ugm-3
07-01-2011,17:00,19,R,ugm-3,44,R,ugm-3,73,R,ugm-3,40,R,ugm-3
07-01-2011,18:00,6,R,ugm-3,25,R,ugm-3,34,R,ugm-3,56,R,ugm-3
07-01-2011,19:00,5,R,ugm-3,19,R,ugm-3,27,R,ugm-3,64,R,ugm-3
07-01-2011,20:00,3,R,ugm-3,15,R,ugm-3,19,R,ugm-3,66,R,ugm-3
07-01-2011,21:00,4,R,ugm-3,13,R,ugm-3,19,R,ugm-3,66,R,ugm-3
07-01-2011,22:00,6,R,ugm-3,11,R,ugm-3,21,R,ugm-3,66,R,ugm-3
07-01-2011,23:00,4,R,ugm-3,11,R,ugm-3,17,R,ugm-3,70,R,ugm-3
07-01-2011,24:00,3,R,ugm-3,6,R,ugm-3,10,R,ugm-3,76,R,ugm-3
08-01-2011,01:00,6,R,ugm-3,10,R,ugm-3,19,R,ugm-3,72,R,ugm-3
08-01-2011,02:00,4,R,ugm-3,17,R,ugm-3,23,R,ugm-3,64,R,ugm-3
08-01-2011,03:00,6,R,ugm-3,17,R,ugm-3,27,R,ugm-3,58,R,ugm-3
08-01-2011,04:00,1,R,ugm-3,4,R,ugm-3,6,R,ugm-3,74,R,ugm-3
08-01-2011,05:00,3,R,ugm-3,6,R,ugm-3,10,R,ugm-3,74,R,ugm-3
08-01-2011,06:00,4,R,ugm-3,8,R,ugm-3,13,R,ugm-3,62,R,ugm-3
08-01-2011,07:00,10,R,ugm-3,19,R,ugm-3,34,R,ugm-3,30,R,ugm-3
08-01-2011,08:00,20,R,ugm-3,21,R,ugm-3,52,R,ugm-3,28,R,ugm-3
08-01-2011,09:00,23,R,ugm-3,21,R,ugm-3,55,R,ugm-3,30,R,ugm-3
08-01-2011,10:00,40,R,ugm-3,27,R,ugm-3,88,R,ugm-3,32,R,ugm-3
08-01-2011,11:00,48,R,ugm-3,32,R,ugm-3,105,R,ugm-3,44,R,ugm-3
08-01-2011,12:00,45,R,ugm-3,32,R,ugm-3,101,R,ugm-3,42,R,ugm-3
08-01-2011,13:00,29,R,ugm-3,32,R,ugm-3,76,R,ugm-3,46,R,ugm-3
08-01-2011,14:00,53,R,ugm-3,40,R,ugm-3,120,R,ugm-3,40,R,ugm-3
08-01-2011,15:00,70,R,ugm-3,63,R,ugm-3,170,R,ugm-3,24,R,ugm-3
08-01-2011,16:00,73,R,ugm-3,71,R,ugm-3,181,R,ugm-3,16,R,ugm-3
08-01-2011,17:00,64,R,ugm-3,63,R,ugm-3,160,R,ugm-3,18,R,ugm-3
08-01-2011,18:00,46,R,ugm-3,63,R,ugm-3,134,R,ugm-3,16,R,ugm-3
08-01-2011,19:00,20,R,ugm-3,36,R,ugm-3,67,R,ugm-3,36,R,ugm-3
08-01-2011,20:00,38,R,ugm-3,55,R,ugm-3,113,R,ugm-3,22,R,ugm-3
08-01-2011,21:00,34,R,ugm-3,46,R,ugm-3,97,R,ugm-3,28,R,ugm-3
08-01-2011,22:00,51,R,ugm-3,52,R,ugm-3,130,R,ugm-3,18,R,ugm-3
08-01-2011,23:00,30,R,ugm-3,48,R,ugm-3,94,R,ugm-3,26,R,ugm-3
08-01-2011,24:00,6,R,ugm-3,21,R,ugm-3,31,R,ugm-3,48,R,ugm-3
09-01-2011,01:00,5,R,ugm-3,23,R,ugm-3,31,R,ugm-3,46,R,ugm-3
09-01-2011,02:00,3,R,ugm-3,21,R,ugm-3,25,R,ugm-3,48,R,ugm-3
09-01-2011,03:00,1,R,ugm-3,13,R,ugm-3,15,R,ugm-3,50,R,ugm-3
09-01-2011,04:00,1,R,ugm-3,17,R,ugm-3,19,R,ugm-3,46,R,ugm-3
09-01-2011,05:00,3,R,ugm-3,17,R,ugm-3,21,R,ugm-3,46,R,ugm-3
09-01-2011,06:00,14,R,ugm-3,32,R,ugm-3,53,R,ugm-3,26,R,ugm-3
09-01-2011,07:00,34,R,ugm-3,52,R,ugm-3,103,R,ugm-3,8,R,ugm-3
09-01-2011,08:00,121,R,ugm-3,74,R,ugm-3,260,R,ugm-3,4,R,ugm-3
09-01-2011,09:00,70,R,ugm-3,71,R,ugm-3,178,R,ugm-3,12,R,ugm-3
09-01-2011,10:00,164,R,ugm-3,97,R,ugm-3,348,R,ugm-3,6,R,ugm-3
09-01-2011,11:00,60,R,ugm-3,65,R,ugm-3,157,R,ugm-3,24,R,ugm-3
09-01-2011,12:00,14,R,ugm-3,27,R,ugm-3,48,R,ugm-3,52,R,ugm-3
09-01-2011,13:00,26,R,ugm-3,29,R,ugm-3,69,R,ugm-3,48,R,ugm-3
09-01-2011,14:00,18,R,ugm-3,31,R,ugm-3,57,R,ugm-3,50,R,ugm-3
09-01-2011,15:00,128,R,ugm-3,80,R,ugm-3,275,R,ugm-3,16,R,ugm-3
09-01-2011,16:00,183,R,ugm-3,105,R,ugm-3,384,R,ugm-3,4,R,ugm-3
09-01-2011,17:00,146,R,ugm-3,99,R,ugm-3,323,R,ugm-3,2,R,ugm-3
09-01-2011,18:00,224,R,ugm-3,107,R,ugm-3,449,R,ugm-3,2,R,ugm-3
09-01-2011,19:00,263,R,ugm-3,113,R,ugm-3,514,R,ugm-3,2,R,ugm-3
09-01-2011,20:00,223,R,ugm-3,101,R,ugm-3,441,R,ugm-3,2,R,ugm-3
09-01-2011,21:00,108,R,ugm-3,69,R,ugm-3,233,R,ugm-3,2,R,ugm-3
09-01-2011,22:00,118,R,ugm-3,59,R,ugm-3,239,R,ugm-3,2,R,ugm-3
09-01-2011,23:00,123,R,ugm-3,52,R,ugm-3,239,R,ugm-3,2,R,ugm-3
09-01-2011,24:00,58,R,ugm-3,53,R,ugm-3,141,R,ugm-3,2,R,ugm-3
10-01-2011,01:00,75,R,ugm-3,40,R,ugm-3,155,R,ugm-3,0,R,ugm-3
10-01-2011,02:00,58,R,ugm-3,48,R,ugm-3,136,R,ugm-3,2,R,ugm-3
10-01-2011,03:00,19,R,ugm-3,44,R,ugm-3,73,R,ugm-3,8,R,ugm-3
10-01-2011,04:00,3,R,ugm-3,21,R,ugm-3,25,R,ugm-3,46,R,ugm-3
10-01-2011,05:00,5,R,ugm-3,19,R,ugm-3,27,R,ugm-3,50,R,ugm-3
10-01-2011,06:00,14,R,ugm-3,29,R,ugm-3,50,R,ugm-3,44,R,ugm-3
10-01-2011,07:00,16,R,ugm-3,40,R,ugm-3,65,R,ugm-3,38,R,ugm-3
10-01-2011,08:00,29,R,ugm-3,42,R,ugm-3,86,R,ugm-3,40,R,ugm-3
10-01-2011,09:00,16,R,ugm-3,32,R,ugm-3,57,R,ugm-3,50,R,ugm-3
10-01-2011,10:00,16,R,ugm-3,32,R,ugm-3,57,R,ugm-3,48,R,ugm-3
10-01-2011,11:00,14,R,ugm-3,31,R,ugm-3,52,R,ugm-3,52,R,ugm-3
10-01-2011,12:00,14,R,ugm-3,29,R,ugm-3,50,R,ugm-3,52,R,ugm-3
10-01-2011,13:00,19,R,ugm-3,29,R,ugm-3,57,R,ugm-3,50,R,ugm-3
10-01-2011,14:00,9,R,ugm-3,25,R,ugm-3,38,R,ugm-3,56,R,ugm-3
10-01-2011,15:00,8,R,ugm-3,23,R,ugm-3,34,R,ugm-3,62,R,ugm-3
10-01-2011,16:00,9,R,ugm-3,25,R,ugm-3,38,R,ugm-3,60,R,ugm-3
10-01-2011,17:00,8,R,ugm-3,25,R,ugm-3,36,R,ugm-3,62,R,ugm-3
10-01-2011,18:00,5,R,ugm-3,19,R,ugm-3,27,R,ugm-3,64,R,ugm-3
10-01-2011,19:00,5,R,ugm-3,23,R,ugm-3,31,R,ugm-3,58,R,ugm-3
10-01-2011,20:00,5,R,ugm-3,21,R,ugm-3,29,R,ugm-3,60,R,ugm-3
10-01-2011,21:00,4,R,ugm-3,21,R,ugm-3,27,R,ugm-3,60,R,ugm-3
10-01-2011,22:00,9,R,ugm-3,25,R,ugm-3,38,R,ugm-3,54,R,ugm-3
10-01-2011,23:00,16,R,ugm-3,32,R,ugm-3,57,R,ugm-3,44,R,ugm-3
10-01-2011,24:00,4,R,ugm-3,27,R,ugm-3,32,R,ugm-3,52,R,ugm-3
11-01-2011,01:00,1,R,ugm-3,10,R,ugm-3,11,R,ugm-3,78,R,ugm-3
11-01-2011,02:00,0,R,ugm-3,6,R,ugm-3,6,R,ugm-3,78,R,ugm-3
11-01-2011,03:00,0,R,ugm-3,6,R,ugm-3,6,R,ugm-3,78,R,ugm-3
11-01-2011,04:00,1,R,ugm-3,6,R,ugm-3,8,R,ugm-3,80,R,ugm-3
11-01-2011,05:00,4,R,ugm-3,13,R,ugm-3,19,R,ugm-3,70,R,ugm-3
11-01-2011,06:00,15,R,ugm-3,19,R,ugm-3,42,R,ugm-3,48,R,ugm-3
11-01-2011,07:00,25,R,ugm-3,29,R,ugm-3,67,R,ugm-3,44,R,ugm-3
11-01-2011,08:00,63,R,ugm-3,40,R,ugm-3,136,R,ugm-3,40,R,ugm-3
11-01-2011,09:00,70,R,ugm-3,50,R,ugm-3,157,R,ugm-3,40,R,ugm-3
11-01-2011,10:00,48,R,ugm-3,40,R,ugm-3,113,R,ugm-3,42,R,ugm-3
11-01-2011,11:00,58,R,ugm-3,40,R,ugm-3,128,R,ugm-3,42,R,ugm-3
11-01-2011,12:00,68,R,ugm-3,38,R,ugm-3,141,R,ugm-3,44,R,ugm-3
11-01-2011,13:00,46,R,ugm-3,38,R,ugm-3,109,R,ugm-3,48,R,ugm-3
11-01-2011,14:00,66,R,ugm-3,55,R,ugm-3,157,R,ugm-3,38,R,ugm-3
11-01-2011,15:00,45,R,ugm-3,50,R,ugm-3,118,R,ugm-3,36,R,ugm-3
11-01-2011,16:00,46,R,ugm-3,53,R,ugm-3,124,R,ugm-3,30,R,ugm-3
11-01-2011,17:00,99,R,ugm-3,90,R,ugm-3,241,R,ugm-3,8,R,ugm-3
11-01-2011,18:00,46,R,ugm-3,73,R,ugm-3,143,R,ugm-3,12,R,ugm-3
11-01-2011,19:00,48,R,ugm-3,74,R,ugm-3,147,R,ugm-3,10,R,ugm-3
11-01-2011,20:00,40,R,ugm-3,52,R,ugm-3,113,R,ugm-3,22,R,ugm-3
11-01-2011,21:00,31,R,ugm-3,46,R,ugm-3,94,R,ugm-3,26,R,ugm-3
11-01-2011,22:00,14,R,ugm-3,42,R,ugm-3,63,R,ugm-3,24,R,ugm-3
11-01-2011,23:00,10,R,ugm-3,19,R,ugm-3,34,R,ugm-3,50,R,ugm-3
11-01-2011,24:00,4,R,ugm-3,15,R,ugm-3,21,R,ugm-3,60,R,ugm-3
12-01-2011,01:00,1,R,ugm-3,10,R,ugm-3,11,R,ugm-3,70,R,ugm-3
12-01-2011,02:00,0,R,ugm-3,11,R,ugm-3,11,R,ugm-3,64,R,ugm-3
12-01-2011,03:00,1,R,ugm-3,13,R,ugm-3,15,R,ugm-3,60,R,ugm-3
12-01-2011,04:00,9,R,ugm-3,27,R,ugm-3,40,R,ugm-3,38,R,ugm-3
12-01-2011,05:00,8,R,ugm-3,21,R,ugm-3,32,R,ugm-3,44,R,ugm-3
12-01-2011,06:00,16,R,ugm-3,32,R,ugm-3,57,R,ugm-3,36,R,ugm-3
12-01-2011,07:00,56,R,ugm-3,61,R,ugm-3,147,R,ugm-3,16,R,ugm-3
12-01-2011,08:00,78,R,ugm-3,71,R,ugm-3,189,R,ugm-3,16,R,ugm-3
12-01-2011,09:00,45,R,ugm-3,52,R,ugm-3,120,R,ugm-3,28,R,ugm-3
12-01-2011,10:00,24,R,ugm-3,38,R,ugm-3,74,R,ugm-3,30,R,ugm-3
12-01-2011,11:00,31,R,ugm-3,46,R,ugm-3,94,R,ugm-3,24,R,ugm-3
12-01-2011,12:00,26,R,ugm-3,42,R,ugm-3,82,R,ugm-3,28,R,ugm-3
12-01-2011,13:00,24,R,ugm-3,36,R,ugm-3,73,R,ugm-3,32,R,ugm-3
12-01-2011,14:00,24,R,ugm-3,29,R,ugm-3,65,R,ugm-3,40,R,ugm-3
12-01-2011,15:00,54,R,ugm-3,40,R,ugm-3,122,R,ugm-3,34,R,ugm-3
12-01-2011,16:00,36,R,ugm-3,52,R,ugm-3,107,R,ugm-3,24,R,ugm-3
12-01-2011,17:00,26,R,ugm-3,38,R,ugm-3,78,R,ugm-3,32,R,ugm-3
12-01-2011,18:00,10,R,ugm-3,32,R,ugm-3,48,R,ugm-3,34,R,ugm-3
12-01-2011,19:00,8,R,ugm-3,25,R,ugm-3,36,R,ugm-3,42,R,ugm-3
12-01-2011,20:00,9,R,ugm-3,21,R,ugm-3,34,R,ugm-3,40,R,ugm-3
12-01-2011,21:00,8,R,ugm-3,19,R,ugm-3,31,R,ugm-3,42,R,ugm-3
12-01-2011,22:00,4,R,ugm-3,13,R,ugm-3,19,R,ugm-3,46,R,ugm-3
12-01-2011,23:00,3,R,ugm-3,8,R,ugm-3,11,R,ugm-3,48,R,ugm-3
12-01-2011,24:00,1,R,ugm-3,4,R,ugm-3,6,R,ugm-3,52,R,ugm-3
13-01-2011,01:00,1,R,ugm-3,4,R,ugm-3,6,R,ugm-3,52,R,ugm-3
13-01-2011,02:00,0,R,ugm-3,2,R,ugm-3,2,R,ugm-3,54,R,ugm-3
13-01-2011,03:00,0,R,ugm-3,2,R,ugm-3,2,R,ugm-3,54,R,ugm-3
13-01-2011,04:00,4,R,ugm-3,8,R,ugm-3,13,R,ugm-3,50,R,ugm-3
13-01-2011,05:00,5,R,ugm-3,11,R,ugm-3,19,R,ugm-3,46,R,ugm-3
13-01-2011,06:00,26,R,ugm-3,29,R,ugm-3,69,R,ugm-3,32,R,ugm-3
13-01-2011,07:00,41,R,ugm-3,42,R,ugm-3,105,R,ugm-3,30,R,ugm-3
13-01-2011,08:00,49,R,ugm-3,57,R,ugm-3,132,R,ugm-3,20,R,ugm-3
13-01-2011,09:00,54,R,ugm-3,52,R,ugm-3,134,R,ugm-3,16,R,ugm-3
13-01-2011,10:00,43,R,ugm-3,44,R,ugm-3,109,R,ugm-3,20,R,ugm-3
13-01-2011,11:00,31,R,ugm-3,38,R,ugm-3,86,R,ugm-3,24,R,ugm-3
13-01-2011,12:00,24,R,ugm-3,29,R,ugm-3,65,R,ugm-3,30,R,ugm-3
13-01-2011,13:00,23,R,ugm-3,32,R,ugm-3,67,R,ugm-3,28,R,ugm-3
13-01-2011,14:00,13,R,ugm-3,27,R,ugm-3,46,R,ugm-3,32,R,ugm-3
13-01-2011,15:00,10,R,ugm-3,23,R,ugm-3,38,R,ugm-3,38,R,ugm-3
13-01-2011,16:00,11,R,ugm-3,23,R,ugm-3,40,R,ugm-3,38,R,ugm-3
13-01-2011,17:00,9,R,ugm-3,21,R,ugm-3,34,R,ugm-3,40,R,ugm-3
13-01-2011,18:00,4,R,ugm-3,15,R,ugm-3,21,R,ugm-3,46,R,ugm-3
13-01-2011,19:00,3,R,ugm-3,11,R,ugm-3,15,R,ugm-3,50,R,ugm-3
13-01-2011,20:00,3,R,ugm-3,11,R,ugm-3,15,R,ugm-3,50,R,ugm-3
13-01-2011,21:00,4,R,ugm-3,13,R,ugm-3,19,R,ugm-3,50,R,ugm-3
13-01-2011,22:00,3,R,ugm-3,10,R,ugm-3,13,R,ugm-3,54,R,ugm-3
13-01-2011,23:00,3,R,ugm-3,6,R,ugm-3,10,R,ugm-3,60,R,ugm-3
13-01-2011,24:00,1,R,ugm-3,6,R,ugm-3,8,R,ugm-3,64,R,ugm-3
14-01-2011,01:00,3,R,ugm-3,10,R,ugm-3,13,R,ugm-3,60,R,ugm-3
14-01-2011,02:00,0,R,ugm-3,6,R,ugm-3,6,R,ugm-3,64,R,ugm-3
14-01-2011,03:00,0,R,ugm-3,2,R,ugm-3,2,R,ugm-3,66,R,ugm-3
14-01-2011,04:00,0,R,ugm-3,4,R,ugm-3,4,R,ugm-3,64,R,ugm-3
14-01-2011,05:00,5,R,ugm-3,13,R,ugm-3,21,R,ugm-3,54,R,ugm-3
14-01-2011,06:00,13,R,ugm-3,21,R,ugm-3,40,R,ugm-3,50,R,ugm-3
14-01-2011,07:00,20,R,ugm-3,34,R,ugm-3,65,R,ugm-3,44,R,ugm-3
14-01-2011,08:00,28,R,ugm-3,46,R,ugm-3,88,R,ugm-3,36,R,ugm-3
14-01-2011,09:00,20,R,ugm-3,34,R,ugm-3,65,R,ugm-3,42,R,ugm-3
14-01-2011,10:00,26,R,ugm-3,40,R,ugm-3,80,R,ugm-3,40,R,ugm-3
14-01-2011,11:00,26,R,ugm-3,34,R,ugm-3,74,R,ugm-3,44,R,ugm-3
14-01-2011,12:00,34,R,ugm-3,36,R,ugm-3,88,R,ugm-3,42,R,ugm-3
14-01-2011,13:00,11,R,ugm-3,23,R,ugm-3,40,R,ugm-3,56,R,ugm-3
14-01-2011,14:00,21,R,ugm-3,29,R,ugm-3,61,R,ugm-3,52,R,ugm-3
14-01-2011,15:00,29,R,ugm-3,40,R,ugm-3,84,R,ugm-3,44,R,ugm-3
14-01-2011,16:00,21,R,ugm-3,34,R,ugm-3,67,R,ugm-3,50,R,ugm-3
14-01-2011,17:00,28,R,ugm-3,46,R,ugm-3,88,R,ugm-3,38,R,ugm-3
14-01-2011,18:00,25,R,ugm-3,46,R,ugm-3,84,R,ugm-3,38,R,ugm-3
14-01-2011,19:00,18,R,ugm-3,42,R,ugm-3,69,R,ugm-3,40,R,ugm-3
14-01-2011,20:00,13,R,ugm-3,32,R,ugm-3,52,R,ugm-3,48,R,ugm-3
14-01-2011,21:00,10,R,ugm-3,25,R,ugm-3,40,R,ugm-3,50,R,ugm-3
14-01-2011,22:00,13,R,ugm-3,27,R,ugm-3,46,R,ugm-3,50,R,ugm-3
14-01-2011,23:00,3,R,ugm-3,13,R,ugm-3,17,R,ugm-3,64,R,ugm-3
14-01-2011,24:00,1,R,ugm-3,8,R,ugm-3,10,R,ugm-3,68,R,ugm-3
15-01-2011,01:00,1,R,ugm-3,6,R,ugm-3,8,R,ugm-3,70,R,ugm-3
15-01-2011,02:00,1,R,ugm-3,4,R,ugm-3,6,R,ugm-3,72,R,ugm-3
15-01-2011,03:00,1,R,ugm-3,2,R,ugm-3,4,R,ugm-3,72,R,ugm-3
15-01-2011,04:00,0,R,ugm-3,2,R,ugm-3,2,R,ugm-3,72,R,ugm-3
15-01-2011,05:00,1,R,ugm-3,4,R,ugm-3,6,R,ugm-3,72,R,ugm-3
15-01-2011,06:00,3,R,ugm-3,6,R,ugm-3,10,R,ugm-3,72,R,ugm-3
15-01-2011,07:00,3,R,ugm-3,10,R,ugm-3,13,R,ugm-3,70,R,ugm-3
15-01-2011,08:00,5,R,ugm-3,17,R,ugm-3,25,R,ugm-3,64,R,ugm-3
15-01-2011,09:00,6,R,ugm-3,21,R,ugm-3,31,R,ugm-3,62,R,ugm-3
15-01-2011,10:00,6,R,ugm-3,17,R,ugm-3,27,R,ugm-3,66,R,ugm-3
15-01-2011,11:00,8,R,ugm-3,17,R,ugm-3,29,R,ugm-3,68,R,ugm-3
15-01-2011,12:00,9,R,ugm-3,19,R,ugm-3,32,R,ugm-3,66,R,ugm-3
15-01-2011,13:00,9,R,ugm-3,21,R,ugm-3,34,R,ugm-3,66,R,ugm-3
15-01-2011,14:00,9,R,ugm-3,21,R,ugm-3,34,R,ugm-3,64,R,ugm-3
15-01-2011,15:00,8,R,ugm-3,19,R,ugm-3,31,R,ugm-3,64,R,ugm-3
15-01-2011,16:00,6,R,ugm-3,17,R,ugm-3,27,R,ugm-3,66,R,ugm-3
15-01-2011,17:00,5,R,ugm-3,13,R,ugm-3,21,R,ugm-3,70,R,ugm-3
15-01-2011,18:00,4,R,ugm-3,13,R,ugm-3,19,R,ugm-3,72,R,ugm-3
15-01-2011,19:00,5,R,ugm-3,15,R,ugm-3,23,R,ugm-3,70,R,ugm-3
15-01-2011,20:00,4,R,ugm-3,13,R,ugm-3,19,R,ugm-3,70,R,ugm-3
15-01-2011,21:00,4,R,ugm-3,15,R,ugm-3,21,R,ugm-3,70,R,ugm-3
15-01-2011,22:00,3,R,ugm-3,11,R,ugm-3,15,R,ugm-3,72,R,ugm-3
15-01-2011,23:00,3,R,ugm-3,6,R,ugm-3,10,R,ugm-3,74,R,ugm-3
15-01-2011,24:00,1,R,ugm-3,6,R,ugm-3,8,R,ugm-3,72,R,ugm-3
16-01-2011,01:00,1,R,ugm-3,6,R,ugm-3,8,R,ugm-3,62,R,ugm-3
16-01-2011,02:00,1,R,ugm-3,4,R,ugm-3,6,R,ugm-3,58,R,ugm-3
16-01-2011,03:00,1,R,ugm-3,4,R,ugm-3,6,R,ugm-3,58,R,ugm-3
16-01-2011,04:00,0,R,ugm-3,2,R,ugm-3,2,R,ugm-3,60,R,ugm-3
16-01-2011,05:00,0,R,ugm-3,2,R,ugm-3,2,R,ugm-3,60,R,ugm-3
16-01-2011,06:00,1,R,ugm-3,2,R,ugm-3,4,R,ugm-3,60,R,ugm-3
16-01-2011,07:00,1,R,ugm-3,4,R,ugm-3,6,R,ugm-3,62,R,ugm-3
16-01-2011,08:00,1,R,ugm-3,8,R,ugm-3,10,R,ugm-3,58,R,ugm-3
16-01-2011,09:00,4,R,ugm-3,10,R,ugm-3,15,R,ugm-3,58,R,ugm-3
16-01-2011,10:00,5,R,ugm-3,13,R,ugm-3,21,R,ugm-3,56,R,ugm-3
16-01-2011,11:00,6,R,ugm-3,15,R,ugm-3,25,R,ugm-3,54,R,ugm-3
16-01-2011,12:00,9,R,ugm-3,19,R,ugm-3,32,R,ugm-3,50,R,ugm-3
16-01-2011,13:00,10,R,ugm-3,21,R,ugm-3,36,R,ugm-3,48,R,ugm-3
16-01-2011,14:00,10,R,ugm-3,25,R,ugm-3,40,R,ugm-3,42,R,ugm-3
16-01-2011,15:00,18,R,ugm-3,25,R,ugm-3,52,R,ugm-3,46,R,ugm-3
16-01-2011,16:00,59,R,ugm-3,57,R,ugm-3,147,R,ugm-3,26,R,ugm-3
16-01-2011,17:00,73,R,ugm-3,53,R,ugm-3,164,R,ugm-3,24,R,ugm-3
16-01-2011,18:00,39,R,ugm-3,50,R,ugm-3,109,R,ugm-3,32,R,ugm-3
16-01-2011,19:00,36,R,ugm-3,59,R,ugm-3,115,R,ugm-3,20,R,ugm-3
16-01-2011,20:00,20,R,ugm-3,44,R,ugm-3,74,R,ugm-3,28,R,ugm-3
16-01-2011,21:00,43,R,ugm-3,71,R,ugm-3,136,R,ugm-3,10,R,ugm-3
16-01-2011,22:00,30,R,ugm-3,52,R,ugm-3,97,R,ugm-3,18,R,ugm-3
16-01-2011,23:00,44,R,ugm-3,53,R,ugm-3,120,R,ugm-3,8,R,ugm-3
16-01-2011,24:00,21,R,ugm-3,38,R,ugm-3,71,R,ugm-3,18,R,ugm-3
17-01-2011,01:00,49,R,ugm-3,55,R,ugm-3,130,R,ugm-3,4,R,ugm-3
17-01-2011,02:00,1,R,ugm-3,23,R,ugm-3,25,R,ugm-3,28,R,ugm-3
17-01-2011,03:00,8,R,ugm-3,29,R,ugm-3,40,R,ugm-3,20,R,ugm-3
17-01-2011,04:00,5,R,ugm-3,19,R,ugm-3,27,R,ugm-3,34,R,ugm-3
17-01-2011,05:00,16,R,ugm-3,27,R,ugm-3,52,R,ugm-3,22,R,ugm-3
17-01-2011,06:00,80,R,ugm-3,44,R,ugm-3,166,R,ugm-3,22,R,ugm-3